Home   Weather   Weipa   Past weeks
Flag for Australia

Past Weather in Weipa, Queensland, Australia — Yesterday and Last 2 Weeks

Now
86 °F

Scattered clouds.


Feels Like: 93 °F
Forecast: 91 / 75 °F
Wind: 6 mph from East

Location: Weipa City

Current Time: Apr 5, 2020 at 11:31:19 am

Latest Report: Apr 5, 2020 at 11:00 am


Visibility: N/A

Pressure: 29.86 "Hg

Humidity: 66%

Dew Point: 73 °F

Location of WeipaLocation

Past Weather in Weipa — Graph

°F

Weipa Temperature Yesterday

Maximum temperature yesterday: 91 °F (at 3:00 pm)
Minimum temperature yesterday: 77 °F (at 12:00 am)
Average temperature yesterday: 82 °F

High & Low Weather Summary for the Past Weeks

 TemperatureHumidityPressure
High93 °F (Apr 1, 2:00 pm)94% (Mar 22, 6:00 am)29.92 "Hg (Mar 22, 6:00 am)
Low72 °F (Apr 2, 5:00 am)49% (Apr 1, 1:00 pm)29.68 "Hg (Mar 29, 3:00 pm)
Average81 °F79%29.79 "Hg
* Reported Mar 21 10:00 am — Apr 5 10:00 am, Weipa. Weather by CustomWeather, © 2020

Note: Actual official high and low records may vary slightly from our data, if they occured in-between our weather recording intervals... More about our weather records

Weipa Weather History for the Previous 24 Hours

Scroll right to see more
 ConditionsComfort  
Time TempWeatherWind HumidityBarometerVisibility
10:00 am
Sun, Apr 5
86 °FSunny.6 mph70%29.86 "HgN/A
9:00 am81 °FSunny.6 mph84%29.86 "HgN/A
8:07 am77 °FScattered clouds.7 mph94%29.86 "HgN/A
8:00 am77 °FScattered clouds.7 mph94%29.86 "HgN/A
7:30 am75 °FLow clouds.7 mph94%29.86 "Hg1 mi
7:00 am75 °FLow clouds.7 mph94%29.86 "Hg0 mi
6:30 am75 °FPassing clouds.5 mph94%29.86 "Hg2 mi
6:00 am75 °FPassing clouds.5 mph94%29.83 "HgN/A
5:00 am75 °FClear.5 mph94%29.80 "HgN/A
4:00 am75 °FPassing clouds.3 mph94%29.80 "HgN/A
3:30 am75 °FPassing clouds.2 mph94%29.80 "Hg1 mi
3:00 am75 °FPassing clouds.No wind94%29.80 "HgN/A
2:30 am75 °FPassing clouds.1 mph94%29.83 "HgN/A
2:15 am77 °FPassing clouds.5 mph89%29.83 "HgN/A
2:00 am77 °FClear.2 mph89%29.83 "HgN/A
1:30 am77 °FPassing clouds.No wind89%29.86 "HgN/A
1:00 am77 °FPassing clouds.3 mph94%29.86 "HgN/A
12:00 am77 °FPassing clouds.No wind89%29.86 "HgN/A
11:00 pm
Sat, Apr 4
77 °FRain. Mostly cloudy.1 mph94%29.89 "Hg6 mi
10:30 pm77 °FHeavy rain. Overcast.5 mph94%29.89 "Hg2 mi
10:00 pm77 °FLots of rain. Mostly cloudy.6 mph89%29.89 "Hg1 mi
9:00 pm81 °FPassing clouds.7 mph79%29.86 "HgN/A
8:00 pm82 °FMostly cloudy.1 mph79%29.83 "HgN/A
7:00 pm82 °FScattered clouds.5 mph74%29.77 "HgN/A
6:00 pm84 °FMore clouds than sun.9 mph70%29.77 "HgN/A
5:00 pm88 °FScattered clouds.10 mph62%29.74 "HgN/A
4:00 pm90 °FBroken clouds.9 mph59%29.74 "HgN/A
3:00 pm91 °FSunny.6 mph56%29.74 "HgN/A
2:00 pm90 °FScattered clouds.2 mph63%29.74 "HgN/A
1:00 pm88 °FBroken clouds.6 mph62%29.77 "HgN/A
12:00 pm88 °FBroken clouds.5 mph62%29.83 "HgN/A
11:00 am86 °FScattered clouds.5 mph62%29.86 "HgN/A
Weather by CustomWeather, © 2020

See weather overview

Advertising